Location: Lake Arresoe
(56.0000°N, 12.5000°E)
Time: 16:27:51
(UTC+02:00)

Resurs 1-4 Rocket - Pass Details

Date: 29 July 2021
Orbit: 799 x 815 km, 98.6° (Epoch: 23 September)

Event Time Altitude Azimuth Distance (km) Brightness Sun altitude
Rises 02:08:34 0° 20° (NNE) 3,351 7.2 -14.5°
Reaches altitude 10° 02:11:07 10° 29° (NNE) 2,412 5.8 -14.4°
Maximum altitude 02:16:01 36° 95° (E) 1,267 3.2 -14.2°
Enters shadow 02:20:12 13° 158° (SSE) 2,154 3.9 -14.1°
